Location: *
(50.2903°S, 172.5375°W)
Time: 16:02:00
(UTC+00:00)

CZ-2D R/B - Pass Details

Date: 17 November 2019
Orbit: 792 x 844 km, 98.6° (Epoch: 15 December)

Event Time Altitude Azimuth Distance (km) Brightness Sun altitude
Exits shadow 12:54:32 29° 325° (NW) 1,526 3.0 -17.3°
Maximum altitude 12:56:45 41° 277° (W) 1,217 2.8 -17.2°
Drops below altitude 10° 13:01:56 10° 207° (SSW) 2,474 5.1 -16.8°
Sets 13:04:27 0° 200° (SSW) 3,407 6.0 -16.6°
